[[{"header":{"parameterUnit":"m.s-1","parameterCategory":1,"la1":30.2991,"la2":30.254,"lo1":-89.0895,"lo2":-89.0444,"dy":0.0017,"dx":0.0017,"nx":28,"ny":28,"refTime":"2025-06-21T09:00:00:Z","depth":0,"parameterNumber":2,"parameterNumberName":"U-component_of_WINDS"},"data":[0,0,0,0,0,0,0,0,0,0,0,0,0,0,0,0,0,0,0,0,0,0,0,0,0,0,0,0,0,0,0,0,0,0,0,0,0,0,0,0,0,0,0,0,0,0,0,0,0,0,0,0,0,0,0,0,0,0,-1.9597,-1.9595,0,-1.9418,-1.9416,-1.9414,-1.9313,-1.9313,-1.9313,-1.9312,-1.9116,-1.9111,-1.9106,0,0,0,0,0,0,0,0,0,0,0,0,0,-1.9844,-1.984,-1.9597,-1.9595,-1.9593,-1.9418,-1.9416,-1.9413,-1.9313,-1.9313,-1.9313,-1.9312,-1.9117,-1.9112,-1.9106,0,0,0,0,0,0,0,0,0,0,0,0,0,-1.9708,-1.9839,-1.9597,-1.9522,-1.9513,-1.9419,-1.9416,-1.9413,-1.9313,-1.9313,-1.9312,-1.9312,-1.9119,-1.9112,-1.9105,-1.9067,0,0,-1.9082,-1.9079,0,0,0,0,0,0,0,0,-1.9715,-1.9699,-1.9535,-1.9527,-1.9517,-1.9388,-1.9431,-1.9296,-1.9313,-1.9389,-1.9312,-1.9312,-1.9206,-1.9191,-1.9158,-1.9058,-1.9049,-1.9081,-1.9077,-1.9074,-1.9071,0,0,0,0,0,0,0,-1.9725,-1.9706,-1.9526,-1.9533,-1.9522,-1.9494,-1.9475,-1.9405,-1.9301,-1.9382,-1.9375,-1.9356,-1.9201,-1.9165,-1.9153,-1.9046,-1.9081,-1.9075,-1.907,-1.9067,-1.8911,-1.8912,0,0,0,0,0,0,-1.9748,-1.9714,-1.9531,-1.952,-1.9618,-1.949,-1.9468,-1.9429,-1.9302,-1.9282,-1.9356,-1.9352,-1.9178,-1.9161,-1.9145,-1.9095,-1.9074,-1.9067,-1.9062,-1.8911,-1.8911,-1.8912,0,0,0,0,0,0,-1.9754,-1.9733,-1.9538,-1.9615,-1.9589,-1.9487,-1.9444,-1.9426,-1.9391,-1.9282,-1.9262,-1.934,-1.9177,-1.9156,-1.9089,-1.9087,-1.9063,-1.9056,-1.8911,-1.8911,-1.8911,-1.8994,0,0,0,0,0,0,-1.9761,-1.9735,-1.9721,-1.9616,-1.9585,-1.9488,-1.9444,-1.9423,-1.938,-1.9372,-1.9262,-1.9243,-1.9175,-1.9101,-1.9082,-1.9076,-1.9051,-1.891,-1.8911,-1.8911,-1.899,-1.8997,-1.9002,0,0,0,0,0,-1.977,-1.9747,-1.9721,-1.97,-1.9566,-1.9488,-1.947,-1.9396,-1.938,-1.9364,-1.9296,-1.9246,-1.9092,-1.9095,-1.9073,-1.9065,-1.891,-1.8911,-1.8911,-1.8988,-1.8996,-1.9002,0,0,0,0,0,0,-1.9848,-1.9732,-1.9701,-1.9644,-1.9578,-1.9471,-1.9448,-1.9406,-1.9339,-1.9334,-1.9242,-1.9218,-1.9161,-1.9106,-1.9112,-1.9024,-1.8995,-1.8992,-1.9061,-1.9068,-1.9074,-1.9086,-1.9044,0,0,0,0,0,-1.9861,-1.9811,-1.971,-1.9669,-1.9638,-1.955,-1.9513,-1.9464,-1.9389,-1.9358,-1.9284,-1.921,-1.9146,-1.9104,-1.9038,-1.8984,-1.8958,-1.8968,-1.8974,-1.8979,-1.8976,-1.8946,-1.8949,-1.8914,-1.8914,-1.8914,0,0,-1.9881,-1.9812,-1.9784,-1.9684,-1.9626,-1.9574,-1.9526,-1.9471,-1.9432,-1.9348,-1.9283,-1.9227,-1.9138,-1.908,-1.905,-1.9032,-1.8981,-1.898,-1.8985,-1.8978,-1.8947,-1.8951,-1.8954,-1.8915,-1.8915,-1.8914,0,0,-1.9894,-1.9837,-1.9798,-1.9744,-1.9661,-1.9603,-1.9595,-1.9496,-1.9458,-1.9392,-1.933,-1.928,-1.9169,-1.9111,-1.9066,-1.9066,-1.9018,-1.9047,-1.9075,-1.9048,-1.9051,-1.9053,-1.9053,-1.9054,-1.9045,-1.9045,-1.9045,0,-1.9929,-1.9852,-1.9782,-1.9735,-1.9692,-1.9622,-1.9582,-1.9531,-1.9428,-1.94,-1.9384,-1.9248,-1.9183,-1.9111,-1.9112,-1.9078,-1.9065,-1.9057,-1.9057,-1.9058,-1.9059,-1.9058,-1.9058,-1.9049,-1.9048,-1.9048,-1.9048,0,-1.9901,-1.9849,-1.9827,-1.9737,-1.9693,-1.9649,-1.9571,-1.9534,-1.9491,-1.9436,-1.9371,-1.9293,-1.9212,-1.9191,-1.9145,-1.9114,-1.9106,-1.9075,-1.9043,-1.9068,-1.9065,-1.9064,-1.9055,-1.9053,-1.9052,-1.9051,0,0,-1.995,-1.9829,-1.9822,-1.9783,-1.9689,-1.9646,-1.96,-1.9526,-1.9497,-1.943,-1.9388,-1.9301,-1.9274,-1.9224,-1.9171,-1.9148,-1.9155,-1.9119,-1.9116,-1.9128,-1.9117,-1.914,-1.9141,-1.9125,-1.9125,-1.9124,-1.9124,0,-1.9949,-1.9867,-1.9807,-1.9746,-1.9698,-1.9635,-1.9595,-1.9532,-1.9481,-1.9431,-1.9372,-1.9313,-1.9281,-1.9251,-1.9225,-1.916,-1.9151,-1.9159,-1.9083,-1.9081,-1.9105,-1.914,-1.9162,-1.9166,-1.9123,-1.9123,-1.9123,0,-1.9934,-1.9877,-1.9815,-1.9732,-1.9709,-1.9674,-1.9605,-1.9559,-1.9487,-1.9451,-1.9401,-1.9349,-1.9297,-1.9275,-1.9202,-1.9209,-1.9175,-1.9139,-1.9138,-1.9125,-1.9101,-1.9127,-1.9165,-1.9165,-1.9121,-1.9121,-1.9121,0,-1.9978,-1.9885,-1.9836,-1.9804,-1.9706,-1.9684,-1.9641,-1.957,-1.9531,-1.947,-1.9444,-1.9376,-1.9338,-1.9286,-1.9217,-1.9207,-1.9152,-1.9123,-1.9119,-1.9121,-1.9106,-1.9107,-1.9138,-1.9089,-1.9089,-1.9089,-1.9089,0,-1.9981,-1.9945,-1.9856,-1.9825,-1.9784,-1.9716,-1.9675,-1.9627,-1.9566,-1.9524,-1.9464,-1.9425,-1.9338,-1.9289,-1.9235,-1.9183,-1.9166,-1.9135,-1.912,-1.9139,-1.9143,-1.9113,-1.911,-1.9089,-1.9089,-1.9089,-1.9089,0,-2.0021,-1.9959,-1.9903,-1.9818,-1.9796,-1.9769,-1.9694,-1.9662,-1.9611,-1.9559,-1.9543,-1.9461,-1.9401,-1.9329,-1.9243,-1.9207,-1.916,-1.914,-1.9186,-1.9177,-1.9177,-1.9178,-1.9187,-1.9185,-1.914,-1.914,-1.9141,0,-2.0026,-1.9998,-1.9913,-1.9883,-1.9844,-1.9796,-1.9759,-1.9692,-1.9655,-1.9576,-1.9554,-1.9491,-1.9436,-1.9343,-1.9273,-1.9209,-1.9185,-1.9194,-1.9174,-1.9196,-1.9184,-1.9187,-1.9184,-1.9197,-1.9198,-1.9199,-1.9199,0,-2.0042,-2.0015,-1.9966,-1.9908,-1.9868,-1.9817,-1.9763,-1.9742,-1.9664,-1.9626,-1.9567,-1.9525,-1.9443,-1.938,-1.9309,-1.9261,-1.9217,-1.9207,-1.9203,-1.9219,-1.9248,-1.9233,-1.9198,-1.9206,-1.9205,-1.9204,-1.9204,-1.9204,-2.0063,-2.0037,-1.9975,-1.9924,-1.9879,-1.9832,-1.98,-1.9748,-1.9699,-1.9629,-1.9593,-1.9535,-1.9468,-1.9368,-1.9324,-1.9276,-1.926,-1.9253,-1.9251,-1.925,-1.9256,-1.9259,-1.9263,-1.9263,-1.9262,-1.9262,-1.9262,0,-2.0076,-2.0036,-1.999,-1.9921,-1.9881,-1.985,-1.9791,-1.9759,-1.971,-1.9654,-1.9604,-1.9538,-1.9479,-1.941,-1.9346,-1.9321,-1.93,-1.9307,-1.9306,-1.9296,-1.9274,-1.9284,-1.9326,-1.9326,-1.9326,-1.9326,-1.9326,-1.9326,-2.0078,-2.0034,-2.0001,-1.9933,-1.9891,-1.9838,-1.9808,-1.9764,-1.972,-1.9651,-1.9604,-1.9561,-1.9499,-1.9432,-1.9377,-1.9357,-1.9336,-1.9349,-1.9324,-1.9303,-1.9297,-1.9292,-1.9301,-1.9346,-1.9346,-1.935,-1.935,-1.935]},{"header":{"parameterUnit":"m.s-1","parameterCategory":1,"la1":30.2991,"la2":30.254,"lo1":-89.0895,"lo2":-89.0444,"dy":0.0017,"dx":0.0017,"nx":28,"ny":28,"refTime":"2025-06-21T09:00:00:Z","depth":0,"parameterNumber":3,"parameterNumberName":"V-component_of_WINDS"},"data":[0,0,0,0,0,0,0,0,0,0,0,0,0,0,0,0,0,0,0,0,0,0,0,0,0,0,0,0,0,0,0,0,0,0,0,0,0,0,0,0,0,0,0,0,0,0,0,0,0,0,0,0,0,0,0,0,0,0,2.4711,2.4709,0,2.4539,2.4537,2.4535,2.4331,2.4328,2.4325,2.4322,2.4157,2.4155,2.4154,0,0,0,0,0,0,0,0,0,0,0,0,0,2.4873,2.4871,2.4711,2.4709,2.4707,2.4539,2.4537,2.4535,2.4332,2.4328,2.4324,2.4321,2.4157,2.4155,2.4153,0,0,0,0,0,0,0,0,0,0,0,0,0,2.4763,2.4871,2.4711,2.4585,2.4572,2.454,2.4537,2.4534,2.4333,2.4328,2.4323,2.4319,2.4158,2.4155,2.4153,2.4234,0,0,2.4147,2.4146,0,0,0,0,0,0,0,0,2.4769,2.4757,2.4606,2.4594,2.4579,2.4451,2.4533,2.4434,2.4334,2.4424,2.4322,2.4317,2.4259,2.4248,2.4227,2.4227,2.422,2.4146,2.4145,2.4144,2.4143,0,0,0,0,0,0,0,2.4777,2.4763,2.4643,2.4604,2.4588,2.454,2.4519,2.4514,2.4371,2.4416,2.4401,2.4382,2.4251,2.423,2.4221,2.4217,2.4146,2.4144,2.4143,2.4142,2.4278,2.4282,0,0,0,0,0,0,2.4802,2.4771,2.4649,2.4638,2.4664,2.4541,2.4518,2.4498,2.437,2.4346,2.4387,2.4374,2.4236,2.4224,2.4215,2.4303,2.4144,2.4142,2.4141,2.4273,2.4279,2.4284,0,0,0,0,0,0,2.4807,2.4793,2.4655,2.47,2.4679,2.4543,2.4522,2.4497,2.4474,2.4348,2.4322,2.439,2.4231,2.4218,2.4231,2.4294,2.4141,2.4139,2.4267,2.4274,2.4281,2.448,0,0,0,0,0,0,2.4812,2.4796,2.4823,2.4702,2.4677,2.4672,2.4526,2.4497,2.447,2.4451,2.4344,2.4322,2.4227,2.4235,2.4229,2.4289,2.4137,2.4261,2.427,2.4279,2.4467,2.4493,2.4515,0,0,0,0,0,2.4819,2.4888,2.4826,2.4812,2.4708,2.4676,2.4662,2.4548,2.4476,2.4504,2.4423,2.4326,2.4288,2.4238,2.4229,2.429,2.4256,2.4268,2.4278,2.4456,2.4488,2.4515,0,0,0,0,0,0,2.5023,2.4869,2.4799,2.483,2.4767,2.4642,2.4673,2.4585,2.4543,2.4528,2.4391,2.4369,2.4399,2.4345,2.4292,2.4363,2.4258,2.4268,2.4397,2.4426,2.445,2.4463,2.4135,0,0,0,0,0,2.5071,2.5054,2.4922,2.4963,2.4935,2.481,2.4792,2.4709,2.464,2.4613,2.4532,2.4472,2.4446,2.4433,2.4402,2.4458,2.4433,2.4495,2.4519,2.454,2.4551,2.4579,2.4605,2.432,2.432,2.432,0,0,2.5171,2.5085,2.5084,2.5002,2.4943,2.4933,2.4789,2.4784,2.4776,2.4613,2.462,2.456,2.4483,2.4518,2.453,2.4474,2.4624,2.4554,2.4571,2.457,2.4593,2.462,2.4644,2.4328,2.4326,2.4325,0,0,2.5348,2.5281,2.5307,2.5252,2.5164,2.508,2.5088,2.4975,2.4928,2.4931,2.481,2.48,2.4758,2.4709,2.4679,2.484,2.475,2.4834,2.4961,2.499,2.5013,2.5032,2.5092,2.5114,2.4845,2.4845,2.4845,0,2.5485,2.5461,2.5334,2.5336,2.5305,2.5154,2.5183,2.5135,2.5045,2.5028,2.4966,2.4911,2.4849,2.4872,2.4911,2.4891,2.4897,2.4846,2.5019,2.5037,2.5053,2.5109,2.5131,2.4856,2.4855,2.4854,2.4853,0,2.5635,2.5621,2.5653,2.5566,2.5538,2.5555,2.5433,2.5421,2.5341,2.5266,2.5274,2.5193,2.5145,2.5144,2.5066,2.5157,2.5125,2.5043,2.4936,2.5093,2.5143,2.5163,2.4872,2.4868,2.4864,2.4862,0,0,2.5936,2.5778,2.5792,2.5752,2.5644,2.5633,2.5643,2.5593,2.5587,2.5529,2.5537,2.5505,2.5429,2.5395,2.5311,2.5336,2.5472,2.5251,2.5247,2.5297,2.557,2.5633,2.566,2.5411,2.5414,2.5417,2.5577,0,2.6095,2.6101,2.5987,2.6026,2.6013,2.587,2.588,2.5817,2.5748,2.5729,2.5653,2.5633,2.5533,2.5512,2.553,2.5452,2.5525,2.5438,2.542,2.5421,2.5446,2.5685,2.5752,2.5906,2.5595,2.5598,2.5601,0,2.6282,2.6232,2.6269,2.6162,2.6152,2.6162,2.6108,2.6091,2.6019,2.5966,2.5929,2.5833,2.5839,2.5736,2.5745,2.5688,2.5674,2.5635,2.5639,2.5634,2.5522,2.569,2.5952,2.5977,2.563,2.5627,2.5625,0,2.6501,2.6444,2.6458,2.6428,2.6303,2.6314,2.6263,2.6185,2.6163,2.6116,2.6101,2.6058,2.6035,2.6005,2.5901,2.5835,2.5923,2.5811,2.5883,2.5886,2.5909,2.591,2.6176,2.5898,2.5898,2.5897,2.5897,0,2.6691,2.672,2.6555,2.6565,2.6594,2.6465,2.6498,2.6433,2.6366,2.6363,2.6238,2.6239,2.61,2.6087,2.6006,2.6027,2.6017,2.5978,2.5956,2.599,2.5995,2.598,2.5967,2.5903,2.5902,2.5901,2.59,0,2.6941,2.6831,2.6838,2.6718,2.6689,2.6717,2.6616,2.6622,2.6544,2.6542,2.6535,2.6414,2.6392,2.6284,2.6237,2.6183,2.6233,2.6189,2.6257,2.6244,2.6322,2.6317,2.659,2.662,2.6322,2.6325,2.6328,0,2.707,2.7088,2.6971,2.6958,2.6912,2.6894,2.687,2.6745,2.6726,2.6646,2.6663,2.663,2.6596,2.6568,2.6479,2.6443,2.6398,2.6496,2.6392,2.6426,2.6402,2.6403,2.6406,2.652,2.6523,2.6526,2.6529,0,2.7312,2.7257,2.7226,2.7177,2.7151,2.7107,2.7056,2.7054,2.6916,2.6901,2.6875,2.685,2.6801,2.6771,2.672,2.6671,2.6579,2.6562,2.6577,2.6613,2.6652,2.6634,2.632,2.6557,2.6554,2.6552,2.6551,2.6549,2.7506,2.7516,2.7436,2.7406,2.7354,2.731,2.7309,2.7231,2.7207,2.7155,2.7084,2.7069,2.6999,2.692,2.6879,2.6867,2.6814,2.6836,2.6842,2.6849,2.6867,2.6653,2.6858,2.6857,2.6856,2.6855,2.6854,0,2.7743,2.7684,2.7658,2.7589,2.7567,2.7479,2.7418,2.7407,2.7394,2.7334,2.7304,2.7276,2.7247,2.7156,2.7118,2.7127,2.7084,2.7121,2.712,2.7111,2.6916,2.6907,2.7157,2.7157,2.7157,2.7157,2.7157,2.7157,2.7864,2.7877,2.7814,2.7802,2.7743,2.7725,2.7698,2.7658,2.761,2.7584,2.7558,2.7497,2.7426,2.7383,2.7354,2.7327,2.7321,2.7373,2.7334,2.7154,2.7125,2.7097,2.7088,2.7372,2.7372,2.753,2.7531,2.7533]}]]